[[{"header":{"parameterUnit":"m.s-1","parameterCategory":1,"la1":30.2991,"la2":30.254,"lo1":-89.0895,"lo2":-89.0444,"dy":0.0017,"dx":0.0017,"nx":28,"ny":28,"refTime":"2025-09-01T09:00:00:Z","depth":0,"parameterNumber":2,"parameterNumberName":"U-component_of_WINDS"},"data":[0,0,0,0,0,0,0,0,0,0,0,0,0,0,0,0,0,0,0,0,0,0,0,0,0,0,0,0,0,0,0,0,0,0,0,0,0,0,0,0,0,0,0,0,0,0,0,0,0,0,0,0,0,0,0,0,0,0,-3.072,-3.072,0,-3.0716,-3.0716,-3.0716,-3.0614,-3.0612,-3.0609,-3.0606,-3.0603,-3.0605,-3.0607,0,0,0,0,0,0,0,0,0,0,0,0,0,-3.0641,-3.0643,-3.072,-3.072,-3.072,-3.0716,-3.0716,-3.0716,-3.0615,-3.0611,-3.0608,-3.0605,-3.0602,-3.0605,-3.0608,0,0,0,0,0,0,0,0,0,0,0,0,0,-3.066,-3.0643,-3.072,-3.0669,-3.0664,-3.0716,-3.0716,-3.0716,-3.0615,-3.0611,-3.0607,-3.0604,-3.0601,-3.0605,-3.0608,-3.0709,0,0,-3.0619,-3.062,0,0,0,0,0,0,0,0,-3.0659,-3.0663,-3.0676,-3.0672,-3.0667,-3.0662,-3.0686,-3.0713,-3.0616,-3.0634,-3.0606,-3.0602,-3.0626,-3.0627,-3.0635,-3.0708,-3.0708,-3.0619,-3.0621,-3.0623,-3.0624,0,0,0,0,0,0,0,-3.0658,-3.0662,-3.0718,-3.0677,-3.0671,-3.0646,-3.0645,-3.0691,-3.0652,-3.0632,-3.0625,-3.0626,-3.0622,-3.0632,-3.0634,-3.0708,-3.0619,-3.0622,-3.0624,-3.0626,-3.0864,-3.0868,0,0,0,0,0,0,-3.0663,-3.0662,-3.0718,-3.0718,-3.0653,-3.0651,-3.0649,-3.0667,-3.0651,-3.0645,-3.0629,-3.0621,-3.0628,-3.063,-3.0633,-3.075,-3.0623,-3.0626,-3.0628,-3.086,-3.0865,-3.087,0,0,0,0,0,0,-3.0662,-3.0669,-3.0719,-3.0688,-3.0692,-3.0657,-3.0678,-3.0669,-3.0678,-3.0649,-3.0641,-3.0646,-3.0625,-3.0628,-3.0691,-3.0748,-3.0628,-3.0631,-3.0855,-3.0862,-3.0868,-3.0983,0,0,0,0,0,0,-3.066,-3.0669,-3.0707,-3.069,-3.0695,-3.0776,-3.0681,-3.0672,-3.0685,-3.0674,-3.0662,-3.0657,-3.0622,-3.0686,-3.0694,-3.0751,-3.0634,-3.085,-3.0858,-3.0866,-3.0974,-3.0993,-3.1009,0,0,0,0,0,-3.0658,-3.074,-3.0709,-3.0717,-3.0741,-3.0779,-3.0782,-3.074,-3.069,-3.0727,-3.0708,-3.0657,-3.0741,-3.0693,-3.0702,-3.076,-3.0846,-3.0856,-3.0865,-3.0966,-3.0989,-3.1008,0,0,0,0,0,0,-3.0764,-3.0736,-3.0702,-3.0781,-3.0784,-3.0762,-3.0808,-3.0766,-3.0782,-3.0772,-3.0719,-3.0717,-3.0788,-3.078,-3.0728,-3.0857,-3.0784,-3.0796,-3.0859,-3.088,-3.0897,-3.0897,-3.0637,0,0,0,0,0,-3.0797,-3.083,-3.0804,-3.0877,-3.088,-3.0844,-3.0859,-3.0827,-3.0827,-3.0828,-3.0813,-3.0816,-3.0842,-3.0861,-3.0884,-3.0973,-3.0969,-3.1018,-3.1035,-3.1049,-3.106,-3.1106,-3.1127,-3.0901,-3.0901,-3.0901,0,0,-3.0864,-3.0854,-3.0878,-3.0898,-3.0896,-3.0932,-3.0845,-3.0887,-3.0913,-3.0834,-3.0891,-3.0882,-3.0881,-3.0957,-3.099,-3.0953,-3.1122,-3.1062,-3.1073,-3.1076,-3.1118,-3.114,-3.1159,-3.0908,-3.0906,-3.0905,0,0,-3.1006,-3.1002,-3.1061,-3.1061,-3.1059,-3.1035,-3.105,-3.1035,-3.1025,-3.1083,-3.1024,-3.1055,-3.1102,-3.1104,-3.1111,-3.1256,-3.1209,-3.1265,-3.1355,-3.1401,-3.1418,-3.1434,-3.1485,-3.1504,-3.1276,-3.1276,-3.1276,0,-3.109,-3.1142,-3.1097,-3.1143,-3.1153,-3.1084,-3.1143,-3.1146,-3.1152,-3.1161,-3.112,-3.1178,-3.1173,-3.1248,-3.1284,-3.1292,-3.1307,-3.1265,-3.142,-3.1435,-3.1448,-3.1496,-3.1516,-3.1283,-3.1282,-3.1281,-3.128,0,-3.1245,-3.1283,-3.1331,-3.1338,-3.1355,-3.1408,-3.1371,-3.1393,-3.136,-3.1341,-3.14,-3.1392,-3.1412,-3.1428,-3.1396,-3.1499,-3.1476,-3.1429,-3.1355,-3.1478,-3.1522,-3.154,-3.1292,-3.129,-3.1288,-3.1286,0,0,-3.1452,-3.1435,-3.1453,-3.1456,-3.145,-3.1477,-3.1528,-3.1548,-3.1567,-3.1575,-3.1615,-3.1658,-3.1614,-3.1622,-3.159,-3.1631,-3.1745,-3.1578,-3.1577,-3.1608,-3.1858,-3.1894,-3.1916,-3.1715,-3.1719,-3.1721,-3.1858,0,-3.1588,-3.1671,-3.1633,-3.1721,-3.1755,-3.1691,-3.1734,-3.1736,-3.172,-3.1746,-3.1729,-3.1759,-3.1699,-3.1704,-3.1741,-3.1724,-3.1795,-3.1713,-3.1752,-3.1754,-3.1753,-3.1939,-3.1976,-3.2105,-3.1875,-3.1878,-3.188,0,-3.1757,-3.1771,-3.1863,-3.1851,-3.1864,-3.1904,-3.1919,-3.1946,-3.1946,-3.1932,-3.1942,-3.1901,-3.195,-3.1879,-3.1945,-3.1891,-3.1905,-3.1899,-3.1903,-3.1903,-3.1823,-3.1943,-3.2145,-3.2165,-3.1907,-3.1905,-3.1903,0,-3.1897,-3.194,-3.2,-3.2004,-3.1992,-3.2022,-3.2019,-3.2015,-3.203,-3.2044,-3.2053,-3.2073,-3.2083,-3.21,-3.2066,-3.2017,-3.2137,-3.2062,-3.2126,-3.2127,-3.2153,-3.2151,-3.2359,-3.2165,-3.2164,-3.2164,-3.2164,0,-3.2052,-3.211,-3.2063,-3.21,-3.2164,-3.212,-3.2184,-3.2174,-3.2172,-3.2206,-3.2152,-3.2185,-3.2139,-3.2168,-3.2142,-3.22,-3.2206,-3.2196,-3.2188,-3.22,-3.2201,-3.2207,-3.2196,-3.2169,-3.2168,-3.2167,-3.2166,0,-3.2218,-3.2189,-3.225,-3.2234,-3.2232,-3.228,-3.2266,-3.23,-3.2281,-3.2325,-3.2333,-3.2303,-3.2334,-3.2302,-3.2332,-3.2314,-3.2393,-3.2373,-3.2393,-3.2386,-3.2451,-3.2445,-3.2669,-3.2696,-3.2486,-3.2488,-3.249,0,-3.2318,-3.2361,-3.2351,-3.237,-3.2369,-3.2401,-3.2416,-3.2375,-3.2393,-3.2397,-3.2431,-3.2458,-3.2477,-3.253,-3.2511,-3.2534,-3.2513,-3.259,-3.2516,-3.2526,-3.2513,-3.251,-3.2514,-3.2604,-3.2607,-3.2609,-3.261,0,-3.2498,-3.2482,-3.2505,-3.2524,-3.2544,-3.2557,-3.2565,-3.2584,-3.2542,-3.2565,-3.2596,-3.2612,-3.2642,-3.2669,-3.2686,-3.2683,-3.264,-3.2634,-3.265,-3.2662,-3.2671,-3.2666,-3.2432,-3.2629,-3.2627,-3.2625,-3.2624,-3.2624,-3.2633,-3.2669,-3.2667,-3.2696,-3.2698,-3.2708,-3.2739,-3.2724,-3.275,-3.2771,-3.2746,-3.2785,-3.2785,-3.2803,-3.2805,-3.2835,-3.2803,-3.2826,-3.2831,-3.2837,-3.2846,-3.2668,-3.2838,-3.2838,-3.2837,-3.2837,-3.2836,0,-3.281,-3.2806,-3.2833,-3.2847,-3.2869,-3.2828,-3.2836,-3.2857,-3.2892,-3.2896,-3.2916,-3.2953,-3.298,-3.2964,-3.2987,-3.3014,-3.2995,-3.3021,-3.3018,-3.3018,-3.2875,-3.2858,-3.3036,-3.3036,-3.3036,-3.3036,-3.3036,-3.3036,-3.2904,-3.2963,-3.2947,-3.3006,-3.3001,-3.3039,-3.3047,-3.3056,-3.3059,-3.3102,-3.3124,-3.3114,-3.311,-3.3132,-3.3155,-3.315,-3.316,-3.3194,-3.3181,-3.3047,-3.3028,-3.3009,-3.2993,-3.3197,-3.3197,-3.3321,-3.3323,-3.3324]},{"header":{"parameterUnit":"m.s-1","parameterCategory":1,"la1":30.2991,"la2":30.254,"lo1":-89.0895,"lo2":-89.0444,"dy":0.0017,"dx":0.0017,"nx":28,"ny":28,"refTime":"2025-09-01T09:00:00:Z","depth":0,"parameterNumber":3,"parameterNumberName":"V-component_of_WINDS"},"data":[0,0,0,0,0,0,0,0,0,0,0,0,0,0,0,0,0,0,0,0,0,0,0,0,0,0,0,0,0,0,0,0,0,0,0,0,0,0,0,0,0,0,0,0,0,0,0,0,0,0,0,0,0,0,0,0,0,0,2.477,2.477,0,2.479,2.479,2.479,2.4831,2.4831,2.4832,2.4833,2.485,2.4849,2.4849,0,0,0,0,0,0,0,0,0,0,0,0,0,2.4763,2.4763,2.477,2.477,2.477,2.479,2.479,2.479,2.483,2.4831,2.4832,2.4833,2.485,2.4849,2.4849,0,0,0,0,0,0,0,0,0,0,0,0,0,2.4772,2.4762,2.477,2.4793,2.4795,2.479,2.479,2.4791,2.483,2.4831,2.4833,2.4834,2.485,2.4849,2.4849,2.4822,0,0,2.4848,2.4847,0,0,0,0,0,0,0,0,2.4772,2.4773,2.4789,2.4791,2.4794,2.4809,2.4794,2.4801,2.483,2.4817,2.4833,2.4834,2.4835,2.4836,2.4837,2.4823,2.4823,2.4848,2.4847,2.4847,2.4847,0,0,0,0,0,0,0,2.4771,2.4772,2.4778,2.4789,2.4792,2.4801,2.4804,2.4795,2.4819,2.4818,2.4821,2.4823,2.4836,2.4837,2.4837,2.4824,2.4848,2.4847,2.4847,2.4847,2.4788,2.4787,0,0,0,0,0,0,2.4768,2.4771,2.4777,2.4778,2.4786,2.48,2.4803,2.4803,2.4819,2.4823,2.4822,2.4825,2.4837,2.4838,2.4838,2.4807,2.4847,2.4847,2.4846,2.479,2.4788,2.4787,0,0,0,0,0,0,2.4767,2.4768,2.4776,2.4776,2.4777,2.4799,2.4798,2.4803,2.4803,2.4822,2.4826,2.4819,2.4838,2.4839,2.4826,2.4808,2.4846,2.4846,2.4791,2.4789,2.4787,2.4745,0,0,0,0,0,0,2.4767,2.4767,2.4758,2.4775,2.4777,2.4764,2.4797,2.4802,2.4803,2.4807,2.482,2.4823,2.4839,2.4826,2.4825,2.4808,2.4846,2.4793,2.479,2.4788,2.4748,2.4741,2.4736,0,0,0,0,0,2.4766,2.4744,2.4757,2.4758,2.4766,2.4763,2.4764,2.4784,2.4801,2.4791,2.4804,2.4823,2.4811,2.4825,2.4824,2.4806,2.4794,2.4791,2.4788,2.475,2.4743,2.4736,0,0,0,0,0,0,2.4722,2.4747,2.4761,2.4744,2.4751,2.477,2.4758,2.4776,2.4777,2.4781,2.4805,2.4807,2.4791,2.4798,2.4813,2.4781,2.4805,2.4802,2.4777,2.477,2.4764,2.4762,2.4845,0,0,0,0,0,2.4711,2.4708,2.4729,2.4711,2.4715,2.4736,2.4735,2.475,2.4758,2.4761,2.4772,2.4778,2.4776,2.4774,2.4773,2.475,2.4752,2.4737,2.4732,2.4727,2.4723,2.4711,2.4704,2.4777,2.4777,2.4777,0,0,2.4686,2.4699,2.4695,2.4703,2.471,2.4705,2.4738,2.4731,2.4727,2.476,2.4748,2.4757,2.4765,2.4747,2.474,2.4752,2.4704,2.4723,2.4719,2.4718,2.4707,2.47,2.4694,2.4775,2.4776,2.4776,0,0,2.4639,2.4649,2.4636,2.4643,2.4655,2.4669,2.4666,2.4682,2.469,2.4679,2.4703,2.4699,2.4695,2.4699,2.4701,2.4658,2.4675,2.4657,2.4626,2.4614,2.4608,2.4603,2.4586,2.458,2.4653,2.4653,2.4653,0,2.4607,2.4601,2.4626,2.4618,2.462,2.4652,2.4638,2.4643,2.4653,2.4653,2.4668,2.4664,2.4672,2.4655,2.4644,2.4645,2.4641,2.4654,2.4607,2.4602,2.4598,2.4582,2.4576,2.4651,2.4651,2.4652,2.4652,0,2.456,2.4556,2.4544,2.4555,2.4556,2.4545,2.4567,2.4565,2.4581,2.4593,2.4582,2.4593,2.4594,2.4592,2.4607,2.4577,2.4585,2.4603,2.4627,2.4588,2.4573,2.4568,2.4648,2.4648,2.4649,2.465,0,0,2.4483,2.4509,2.4504,2.4509,2.4525,2.4522,2.4513,2.4516,2.4513,2.452,2.4511,2.4508,2.4525,2.4527,2.4543,2.4532,2.4496,2.4552,2.4552,2.454,2.4463,2.4448,2.444,2.4509,2.4508,2.4507,2.4462,0,2.4438,2.4424,2.4447,2.4427,2.4423,2.4454,2.4446,2.4454,2.4466,2.4464,2.4477,2.4473,2.4497,2.4498,2.449,2.4502,2.448,2.4506,2.4499,2.4499,2.4494,2.4433,2.4417,2.4373,2.4456,2.4455,2.4455,0,2.4382,2.4388,2.4368,2.4386,2.4385,2.4377,2.4382,2.438,2.439,2.44,2.4403,2.4422,2.4413,2.4439,2.4426,2.4443,2.4442,2.4448,2.4447,2.4445,2.4472,2.4427,2.436,2.4353,2.4446,2.4447,2.4447,0,2.4326,2.4329,2.4317,2.4321,2.4342,2.4335,2.4343,2.4355,2.4356,2.436,2.436,2.4363,2.4364,2.4365,2.4384,2.4402,2.4368,2.4396,2.4375,2.4374,2.4364,2.4364,2.4293,2.4367,2.4367,2.4367,2.4367,0,2.4272,2.4258,2.4292,2.4284,2.427,2.4297,2.4281,2.4292,2.4303,2.4297,2.4324,2.4318,2.4345,2.4342,2.4357,2.4344,2.4344,2.435,2.4354,2.4347,2.4346,2.4344,2.4347,2.4365,2.4366,2.4366,2.4366,0,2.4205,2.4228,2.4217,2.4239,2.4244,2.4232,2.425,2.4243,2.4258,2.4251,2.4251,2.4273,2.4271,2.4291,2.4292,2.4303,2.4281,2.4291,2.4277,2.428,2.4257,2.4258,2.4181,2.4172,2.4253,2.4252,2.4251,0,2.4168,2.4158,2.418,2.4179,2.4186,2.4184,2.4186,2.4212,2.4212,2.4223,2.4215,2.4216,2.4217,2.4212,2.4227,2.4228,2.4237,2.421,2.4237,2.423,2.4234,2.4234,2.4232,2.4203,2.4203,2.4202,2.4201,0,2.4099,2.4111,2.4113,2.4118,2.412,2.4125,2.4132,2.4129,2.4158,2.4156,2.4155,2.4156,2.4159,2.4158,2.4162,2.417,2.4189,2.4193,2.4188,2.4179,2.4171,2.4173,2.426,2.4194,2.4195,2.4195,2.4196,2.4196,2.4045,2.4038,2.4052,2.4053,2.4061,2.4067,2.4062,2.4078,2.4078,2.4082,2.4098,2.4094,2.4104,2.4113,2.4118,2.4115,2.4127,2.412,2.4118,2.4115,2.411,2.4174,2.4116,2.4116,2.4116,2.4116,2.4116,0,2.3976,2.3987,2.3988,2.3998,2.3998,2.402,2.4029,2.4027,2.4024,2.4033,2.4035,2.4033,2.4033,2.4049,2.4051,2.4045,2.4054,2.4044,2.4044,2.4045,2.4099,2.4103,2.4037,2.4037,2.4037,2.4037,2.4037,2.4037,2.394,2.3929,2.3943,2.3936,2.3947,2.3944,2.3947,2.3953,2.3961,2.3958,2.3959,2.397,2.3982,2.3985,2.3986,2.3991,2.3989,2.3976,2.3983,2.4033,2.4041,2.4048,2.4052,2.3976,2.3976,2.3929,2.3928,2.3928]}]]